[[{"header":{"parameterUnit":"m.s-1","parameterCategory":1,"la1":30.2991,"la2":30.254,"lo1":-89.0895,"lo2":-89.0444,"dy":0.0017,"dx":0.0017,"nx":28,"ny":28,"refTime":"2024-07-12T21:00:00:Z","depth":0,"parameterNumber":2,"parameterNumberName":"U-component_of_WINDS"},"data":[0,0,0,0,0,0,0,0,0,0,0,0,0,0,0,0,0,0,0,0,0,0,0,0,0,0,0,0,0,0,0,0,0,0,0,0,0,0,0,0,0,0,0,0,0,0,0,0,0,0,0,0,0,0,0,0,0,0,2.62,2.6201,0,2.6327,2.6329,2.633,2.6313,2.6311,2.6309,2.6307,2.6439,2.6444,2.6449,0,0,0,0,0,0,0,0,0,0,0,0,0,2.5941,2.5946,2.62,2.6201,2.6203,2.6327,2.6329,2.6331,2.6313,2.6311,2.6308,2.6306,2.6437,2.6443,2.645,0,0,0,0,0,0,0,0,0,0,0,0,0,2.606,2.5948,2.6199,2.6209,2.6211,2.6327,2.6329,2.6331,2.6314,2.6311,2.6307,2.6304,2.6435,2.6443,2.6451,2.6565,0,0,2.6476,2.6479,0,0,0,0,0,0,0,0,2.6053,2.6069,2.6206,2.6209,2.6211,2.6301,2.6286,2.641,2.6315,2.6275,2.6306,2.6303,2.6395,2.6407,2.6438,2.6571,2.6577,2.6477,2.6482,2.6485,2.6487,0,0,0,0,0,0,0,2.6045,2.6064,2.625,2.6208,2.6211,2.6207,2.6221,2.631,2.6351,2.6278,2.6277,2.6292,2.6396,2.643,2.6441,2.6579,2.6476,2.6484,2.6489,2.6492,2.6813,2.6817,0,0,0,0,0,0,2.6034,2.6057,2.6246,2.6254,2.6123,2.6214,2.6229,2.6275,2.635,2.6359,2.6295,2.6291,2.6417,2.6431,2.6445,2.6584,2.6485,2.6493,2.6498,2.681,2.6814,2.6818,0,0,0,0,0,0,2.6028,2.6051,2.6241,2.6155,2.6179,2.6222,2.6274,2.628,2.6313,2.6363,2.6371,2.6321,2.6415,2.6434,2.6536,2.6589,2.6497,2.6504,2.6806,2.6811,2.6816,2.6863,0,0,0,0,0,0,2.6021,2.6049,2.6093,2.6156,2.6184,2.6329,2.6277,2.6284,2.6327,2.6323,2.639,2.6398,2.6414,2.6523,2.6544,2.6598,2.651,2.6801,2.6808,2.6814,2.6857,2.687,2.688,0,0,0,0,0,2.6012,2.6101,2.6095,2.6118,2.6239,2.6332,2.6348,2.6364,2.6331,2.6376,2.6408,2.6396,2.6579,2.6534,2.6557,2.6615,2.6798,2.6806,2.6814,2.6852,2.6867,2.688,0,0,0,0,0,0,2.6043,2.611,2.6104,2.6216,2.6269,2.6329,2.6385,2.638,2.6443,2.6436,2.6455,2.647,2.6573,2.6604,2.6552,2.6729,2.6684,2.6697,2.6705,2.672,2.6731,2.6722,2.6517,0,0,0,0,0,2.6063,2.6132,2.6187,2.6281,2.6308,2.6342,2.6383,2.6391,2.6446,2.6468,2.6508,2.6562,2.6632,2.6678,2.6745,2.6862,2.6876,2.6913,2.6924,2.6933,2.6944,2.7008,2.7025,2.6845,2.6845,2.6844,0,0,2.6105,2.615,2.6193,2.6288,2.633,2.6402,2.6361,2.6438,2.6492,2.648,2.6579,2.661,2.6672,2.6781,2.6832,2.6811,2.6998,2.6944,2.6951,2.6957,2.7019,2.7036,2.7051,2.685,2.6849,2.6848,0,0,2.6218,2.6259,2.6342,2.6384,2.6447,2.647,2.649,2.6551,2.6571,2.667,2.6663,2.6727,2.6847,2.6891,2.693,2.706,2.7051,2.7081,2.7141,2.7204,2.7218,2.7231,2.7277,2.7293,2.7092,2.7092,2.7092,0,2.6262,2.637,2.6385,2.6464,2.6506,2.6499,2.6583,2.6623,2.6705,2.6735,2.671,2.686,2.6901,2.7021,2.7053,2.7084,2.7108,2.7073,2.7214,2.7227,2.7239,2.7284,2.7301,2.7095,2.7095,2.7095,2.7094,0,2.6421,2.6496,2.6555,2.6634,2.6683,2.6764,2.6792,2.684,2.6844,2.6869,2.697,2.7019,2.7096,2.7125,2.713,2.7246,2.7231,2.721,2.7165,2.726,2.7302,2.7319,2.71,2.7099,2.7098,2.7097,0,0,2.6557,2.6644,2.6665,2.6701,2.677,2.6828,2.6909,2.6984,2.7025,2.7082,2.715,2.7252,2.7233,2.7276,2.7286,2.7341,2.7441,2.7313,2.7315,2.7335,2.7572,2.7587,2.7606,2.7435,2.7439,2.7441,2.7566,0,2.6677,2.6819,2.6835,2.6962,2.7031,2.7025,2.7096,2.7146,2.7172,2.7234,2.7263,2.7335,2.7305,2.7331,2.7385,2.7417,2.7488,2.7408,2.7499,2.7502,2.7484,2.7628,2.7644,2.776,2.7583,2.7586,2.7588,0,2.6836,2.6897,2.703,2.709,2.7119,2.7182,2.7252,2.7312,2.7369,2.7384,2.7433,2.7435,2.7519,2.7471,2.7587,2.7532,2.757,2.7592,2.7597,2.7606,2.7551,2.7641,2.7798,2.7815,2.7614,2.7612,2.761,0,2.6921,2.7037,2.7132,2.7163,2.7235,2.7279,2.7311,2.7365,2.7409,2.747,2.7499,2.7569,2.7608,2.7663,2.7684,2.7647,2.7799,2.7753,2.7814,2.7814,2.7846,2.7844,2.8011,2.7871,2.7871,2.7871,2.787,0,2.7053,2.7135,2.7171,2.723,2.7321,2.7339,2.743,2.746,2.7508,2.7573,2.7572,2.7632,2.7658,2.7722,2.774,2.7833,2.7851,2.7865,2.7869,2.7865,2.7864,2.7891,2.7883,2.7875,2.7874,2.7873,2.7872,0,2.7165,2.7192,2.7295,2.7355,2.7371,2.7436,2.7488,2.7544,2.7569,2.7651,2.7671,2.771,2.7786,2.7813,2.7906,2.7918,2.8026,2.8023,2.8007,2.8008,2.8068,2.8062,2.8258,2.8285,2.8127,2.8129,2.813,0,2.7247,2.731,2.7376,2.7419,2.7452,2.7521,2.7566,2.7586,2.7633,2.7703,2.7751,2.7827,2.7888,2.801,2.8047,2.8118,2.8117,2.8181,2.8128,2.8122,2.8118,2.8114,2.812,2.8191,2.8192,2.8194,2.8195,0,2.739,2.74,2.7464,2.7534,2.7587,2.7643,2.7696,2.7732,2.776,2.7813,2.789,2.7938,2.8032,2.8107,2.818,2.8214,2.821,2.8211,2.8229,2.8226,2.8214,2.8221,2.8034,2.8207,2.8205,2.8205,2.8204,2.8204,2.7489,2.7545,2.76,2.7672,2.7714,2.7764,2.782,2.7852,2.7917,2.7995,2.8003,2.8087,2.8143,2.824,2.8276,2.8342,2.8325,2.8351,2.8358,2.8364,2.8368,2.8203,2.8356,2.8355,2.8355,2.8355,2.8355,0,2.7632,2.7667,2.7733,2.7808,2.7865,2.7855,2.7914,2.7962,2.8035,2.8087,2.8148,2.8237,2.831,2.8353,2.8426,2.8471,2.847,2.8489,2.8486,2.8494,2.838,2.8357,2.8488,2.8488,2.8488,2.8488,2.8488,2.8488,2.7713,2.7807,2.7824,2.7938,2.7973,2.8054,2.8089,2.8135,2.8177,2.8276,2.8337,2.8364,2.8413,2.8489,2.8556,2.8567,2.8594,2.8614,2.8623,2.8516,2.8502,2.8489,2.8467,2.862,2.862,2.8732,2.8733,2.8734]},{"header":{"parameterUnit":"m.s-1","parameterCategory":1,"la1":30.2991,"la2":30.254,"lo1":-89.0895,"lo2":-89.0444,"dy":0.0017,"dx":0.0017,"nx":28,"ny":28,"refTime":"2024-07-12T21:00:00:Z","depth":0,"parameterNumber":3,"parameterNumberName":"V-component_of_WINDS"},"data":[0,0,0,0,0,0,0,0,0,0,0,0,0,0,0,0,0,0,0,0,0,0,0,0,0,0,0,0,0,0,0,0,0,0,0,0,0,0,0,0,0,0,0,0,0,0,0,0,0,0,0,0,0,0,0,0,0,0,-0.5458,-0.5458,0,-0.5448,-0.5448,-0.5448,-0.5449,-0.5449,-0.545,-0.545,-0.5438,-0.5437,-0.5437,0,0,0,0,0,0,0,0,0,0,0,0,0,-0.5476,-0.5476,-0.5458,-0.5458,-0.5457,-0.5448,-0.5448,-0.5448,-0.5449,-0.5449,-0.545,-0.545,-0.5438,-0.5437,-0.5437,0,0,0,0,0,0,0,0,0,0,0,0,0,-0.5467,-0.5476,-0.5458,-0.5457,-0.5457,-0.5448,-0.5448,-0.5448,-0.5449,-0.5449,-0.545,-0.545,-0.5438,-0.5438,-0.5437,-0.5427,0,0,-0.5435,-0.5434,0,0,0,0,0,0,0,0,-0.5468,-0.5467,-0.5457,-0.5457,-0.5457,-0.545,-0.545,-0.5441,-0.5449,-0.5452,-0.545,-0.545,-0.5442,-0.5441,-0.5438,-0.5427,-0.5426,-0.5435,-0.5434,-0.5434,-0.5434,0,0,0,0,0,0,0,-0.5468,-0.5467,-0.5454,-0.5457,-0.5457,-0.5457,-0.5456,-0.5448,-0.5445,-0.5452,-0.5452,-0.5451,-0.5442,-0.5439,-0.5438,-0.5426,-0.5435,-0.5434,-0.5434,-0.5433,-0.5406,-0.5406,0,0,0,0,0,0,-0.5469,-0.5467,-0.5454,-0.5453,-0.5463,-0.5456,-0.5455,-0.5452,-0.5446,-0.5445,-0.5451,-0.5451,-0.544,-0.5439,-0.5438,-0.5426,-0.5434,-0.5433,-0.5433,-0.5407,-0.5406,-0.5406,0,0,0,0,0,0,-0.547,-0.5468,-0.5454,-0.5461,-0.5459,-0.5456,-0.5452,-0.5452,-0.5449,-0.5445,-0.5444,-0.5448,-0.544,-0.5439,-0.543,-0.5425,-0.5433,-0.5432,-0.5407,-0.5406,-0.5406,-0.5402,0,0,0,0,0,0,-0.547,-0.5468,-0.5465,-0.546,-0.5458,-0.5447,-0.5452,-0.5451,-0.5448,-0.5448,-0.5443,-0.5442,-0.544,-0.5431,-0.5429,-0.5424,-0.5432,-0.5407,-0.5407,-0.5406,-0.5403,-0.5402,-0.5401,0,0,0,0,0,-0.5471,-0.5464,-0.5465,-0.5463,-0.5454,-0.5447,-0.5446,-0.5445,-0.5448,-0.5444,-0.5441,-0.5442,-0.5426,-0.543,-0.5428,-0.5423,-0.5408,-0.5407,-0.5406,-0.5403,-0.5402,-0.5401,0,0,0,0,0,0,-0.5467,-0.5463,-0.5464,-0.5456,-0.5452,-0.5448,-0.5443,-0.5444,-0.5438,-0.5439,-0.5437,-0.5436,-0.5427,-0.5424,-0.5429,-0.5414,-0.5417,-0.5416,-0.5416,-0.5414,-0.5413,-0.5414,-0.5431,0,0,0,0,0,-0.5466,-0.5461,-0.5457,-0.545,-0.5448,-0.5446,-0.5443,-0.5442,-0.5438,-0.5436,-0.5433,-0.5428,-0.5422,-0.5418,-0.5413,-0.5403,-0.5401,-0.5398,-0.5397,-0.5396,-0.5395,-0.5389,-0.5388,-0.5404,-0.5404,-0.5404,0,0,-0.5462,-0.5459,-0.5456,-0.5449,-0.5446,-0.5441,-0.5444,-0.5438,-0.5434,-0.5435,-0.5427,-0.5424,-0.5419,-0.541,-0.5405,-0.5407,-0.5391,-0.5396,-0.5395,-0.5394,-0.5389,-0.5387,-0.5386,-0.5403,-0.5403,-0.5403,0,0,-0.5452,-0.545,-0.5443,-0.544,-0.5436,-0.5435,-0.5433,-0.5429,-0.5427,-0.5419,-0.542,-0.5414,-0.5404,-0.54,-0.5397,-0.5386,-0.5387,-0.5385,-0.5379,-0.5374,-0.5372,-0.5371,-0.5367,-0.5365,-0.5384,-0.5384,-0.5384,0,-0.5447,-0.544,-0.544,-0.5434,-0.543,-0.5432,-0.5425,-0.5422,-0.5416,-0.5414,-0.5416,-0.5403,-0.54,-0.5389,-0.5387,-0.5384,-0.5382,-0.5385,-0.5373,-0.5372,-0.537,-0.5366,-0.5365,-0.5383,-0.5383,-0.5383,-0.5383,0,-0.5434,-0.5429,-0.5424,-0.5419,-0.5415,-0.5409,-0.5407,-0.5404,-0.5404,-0.5402,-0.5393,-0.539,-0.5383,-0.5381,-0.538,-0.537,-0.5371,-0.5373,-0.5377,-0.5369,-0.5365,-0.5363,-0.5383,-0.5383,-0.5383,-0.5383,0,0,-0.5421,-0.5416,-0.5414,-0.5412,-0.5408,-0.5403,-0.5397,-0.5391,-0.5387,-0.5383,-0.5377,-0.5369,-0.5371,-0.5367,-0.5367,-0.5362,-0.5353,-0.5364,-0.5364,-0.5362,-0.5341,-0.5339,-0.5337,-0.5353,-0.5353,-0.5353,-0.5341,0,-0.541,-0.5399,-0.5399,-0.5389,-0.5384,-0.5386,-0.538,-0.5376,-0.5375,-0.537,-0.5368,-0.5361,-0.5365,-0.5362,-0.5358,-0.5355,-0.5349,-0.5356,-0.5347,-0.5347,-0.5348,-0.5335,-0.5333,-0.5322,-0.534,-0.5339,-0.5339,0,-0.5396,-0.5392,-0.5381,-0.5378,-0.5376,-0.5371,-0.5365,-0.5361,-0.5357,-0.5356,-0.5352,-0.5352,-0.5345,-0.5349,-0.5339,-0.5344,-0.5341,-0.5339,-0.5339,-0.5337,-0.5342,-0.5332,-0.5318,-0.5316,-0.5337,-0.5337,-0.5337,0,-0.5387,-0.5379,-0.5371,-0.5369,-0.5365,-0.5361,-0.5359,-0.5356,-0.5352,-0.5347,-0.5345,-0.5339,-0.5336,-0.5331,-0.533,-0.5333,-0.532,-0.5324,-0.5318,-0.5318,-0.5314,-0.5314,-0.5299,-0.5313,-0.5314,-0.5314,-0.5314,0,-0.5374,-0.5367,-0.5367,-0.5362,-0.5355,-0.5355,-0.5347,-0.5345,-0.5342,-0.5337,-0.5338,-0.5333,-0.5331,-0.5326,-0.5325,-0.5316,-0.5315,-0.5313,-0.5313,-0.5313,-0.5313,-0.531,-0.531,-0.5313,-0.5313,-0.5313,-0.5313,0,-0.5362,-0.5361,-0.5353,-0.535,-0.5349,-0.5344,-0.5341,-0.5336,-0.5335,-0.5328,-0.5327,-0.5325,-0.5318,-0.5317,-0.5309,-0.5308,-0.5298,-0.5298,-0.5299,-0.5299,-0.5293,-0.5293,-0.5274,-0.5271,-0.5288,-0.5288,-0.5288,0,-0.5353,-0.5348,-0.5345,-0.5342,-0.534,-0.5335,-0.5331,-0.5331,-0.5328,-0.5323,-0.5319,-0.5313,-0.5308,-0.5297,-0.5294,-0.5288,-0.5288,-0.5282,-0.5287,-0.5287,-0.5287,-0.5287,-0.5287,-0.5281,-0.5281,-0.5281,-0.528,0,-0.5338,-0.5339,-0.5334,-0.533,-0.5326,-0.5322,-0.5318,-0.5316,-0.5315,-0.5311,-0.5305,-0.5301,-0.5293,-0.5287,-0.5281,-0.5278,-0.5279,-0.5279,-0.5277,-0.5276,-0.5277,-0.5276,-0.5296,-0.5279,-0.5279,-0.5279,-0.5279,-0.528,-0.5327,-0.5323,-0.532,-0.5315,-0.5312,-0.5309,-0.5304,-0.5303,-0.5298,-0.5292,-0.5293,-0.5286,-0.5282,-0.5274,-0.5271,-0.5265,-0.5267,-0.5264,-0.5263,-0.5262,-0.5262,-0.5279,-0.5264,-0.5264,-0.5264,-0.5264,-0.5264,0,-0.5312,-0.531,-0.5306,-0.5301,-0.5297,-0.5299,-0.5295,-0.5291,-0.5285,-0.5282,-0.5277,-0.527,-0.5264,-0.5261,-0.5255,-0.5251,-0.5251,-0.5249,-0.5249,-0.5248,-0.5261,-0.5263,-0.5249,-0.5249,-0.5249,-0.5249,-0.5249,-0.5249,-0.5303,-0.5296,-0.5295,-0.5287,-0.5285,-0.5279,-0.5276,-0.5273,-0.527,-0.5262,-0.5257,-0.5256,-0.5253,-0.5246,-0.5241,-0.524,-0.5237,-0.5235,-0.5235,-0.5246,-0.5247,-0.5249,-0.5251,-0.5235,-0.5235,-0.5222,-0.5222,-0.5222]}]]